This is the latest recevied weather packets stored in our database for station/object OK1KKY-14. If no packets are shown the sender has not sent any weather packets the latest 10 day(s).
| Time | Temp. | Humidity | Pressure | Rain* | Wind** | Luminosity | Snow |
|---|---|---|---|---|---|---|---|
| 1777603343 | 22.78° C | 35% | 1029.3 hPa | - | - | - | - |
| 1777602743 | 22.78° C | 35% | 1029.3 hPa | - | - | - | - |
| 1777602143 | 22.78° C | 35% | 1029.3 hPa | - | - | - | - |
| 1777600943 | 22.78° C | 35% | 1029.2 hPa | - | - | - | - |
| 1777583542 | 23.89° C | 33% | 1029.4 hPa | - | - | - | - |
| 1777582342 | 23.89° C | 33% | 1029.5 hPa | - | - | - | - |
| 1777581742 | 23.89° C | 33% | 1029.5 hPa | - | - | - | - |
| 1777581142 | 23.89° C | 33% | 1029.5 hPa | - | - | - | - |
| 1777579942 | 23.33° C | 33% | 1029.5 hPa | - | - | - | - |
| 1777579342 | 23.33° C | 33% | 1029.4 hPa | - | - | - | - |
| 1777578743 | 23.33° C | 33% | 1029.4 hPa | - | - | - | - |
| 1777577541 | 23.33° C | 33% | 1029.2 hPa | - | - | - | - |
| 1777575742 | 22.22° C | 34% | 1029.1 hPa | - | - | - | - |
| 1777575142 | 21.67° C | 35% | 1029 hPa | - | - | - | - |
| 1777573942 | 21.67° C | 35% | 1028.9 hPa | - | - | - | - |
| 1777572142 | 21.67° C | 35% | 1028.8 hPa | - | - | - | - |
| 1777571542 | 21.67° C | 35% | 1028.7 hPa | - | - | - | - |
| 1777565540 | 21.11° C | 34% | 1028.5 hPa | - | - | - | - |
| 1777564340 | 21.11° C | 34% | 1028.6 hPa | - | - | - | - |
| 1777563140 | 21.11° C | 34% | 1028.6 hPa | - | - | - | - |
| 1777559540 | 21.11° C | 34% | 1029 hPa | - | - | - | - |
| 1777556540 | 21.11° C | 33% | 1029.3 hPa | - | - | - | - |
| 1777555940 | 21.67° C | 33% | 1029.5 hPa | - | - | - | - |
| 1777555340 | 21.67° C | 33% | 1029.7 hPa | - | - | - | - |
| 1777554740 | 21.67° C | 33% | 1029.8 hPa | - | - | - | - |
* Rain since midnight (hover to see other rain measurements)
** Current wind speed in m/s (hover to see current wind gust speed)